Location: Helsinki
(60.1699°N, 24.9384°E)
Time: 15:21:41
(UTC+02:00)

Tiros 1 - Pass Details

Date: 08 October 2022
Orbit: 629 x 662 km, 48.4° (Epoch: 07 December)

Event Time Altitude Azimuth Distance (km) Brightness Sun altitude
Rises 23:55:41 0° 217° (SW) 2,989 - -33.9°
Reaches altitude 10° 23:58:52 10° 196° (SSW) 2,078 - -34.0°
Maximum altitude 00:01:39 15° 160° (SSE) 1,739 - -34.1°
Drops below altitude 10° 00:04:26 10° 124° (SE) 2,077 - -34.3°
Sets 00:07:37 0° 103° (ESE) 2,986 - -34.4°
